FENGYUN 1C DEB, 31838

Orbit data source: Space-Track

FENGYUN 1C DEB, 31838 is space debris in SSO originally from a launch on Mon, 10 May 1999 UTC launched from the Taiyaun Space Center, China (TSC). Fengyun 1C debris stems from the Chinese weather satellite Fengyun-1C, which was intentionally destroyed by a Chinese anti-satellite missile in 2007. This event dramatically increased the amount of space debris, with thousands of trackable fragments posing hazards to satellites and human spaceflight. The Fengyun 1C debris cloud has become a focal point in discussions about space sustainability and the need for international regulations to prevent the creation of new debris.

Loading next visibility...
Identifier
31838, 1999-025CJC
Orbit
SSO
Country
Flag of CNCN / PRC
Related business
Manufacturer
Unknown
Mission
Spacecraft
Bus & Motor
Unknown
Mass
Unknown
Launch date (UTC)
1999-05-10 (27 years ago)
Launch vehicle
Unknown
Launch site
Taiyaun Space Center, China (TSC)
Object type
Payload
Rocket body
Debris
Shape & HBR
Unknown shape, 0.1 m
Radar Cross Section
Small (<0.1 m²)

Expand to show TLE details & history
Last TLE update: 2 months ago

TLE from 2 months ago
0 FENGYUN 1C DEB
1 31838U 99025CJC 26016.40503711  .00000929  00000-0  44388-3 0  9994
2 31838  98.7145  71.6421 0036670 355.0592  21.1503 14.21241691650690
Epoch: 2026-01-16T09:43Z
TLE epoch observation values (Epoch: 2026-01-16T09:43:15.206Z)
Latitude
16.14988°
Longitude
167.45347°
Altitude
798.799 km
Speed
7.468 km/s
True Right ascension
04h 36m 26s
True Declination
16° 03' 32"
Sunlit
Object was in full shadow at epoch
Visualization orbit readout
Latitude
Unknown
Longitude
Unknown
Altitude
Unknown
Speed
Unknown
Apparent Right ascension
Unknown
Apparent Declination
Unknown
Sunlit
N/A
Visualization observer readout
Local Sidereal Time
14:43:16
Azimuth
Unknown
Elevation
Unknown
Doppler factor
Unknown
Orbital elements
Apogee altitude
844.703 km
Perigee altitude
791.924 km
Semi-major axis
7,196.451 km
Eccentricity
0.00367
Inclination
98.7145°
RAAN
71.6421°
Arg. of periapsis
355.0592°
True anomaly
21.30257°
Mean anomaly
21.1503°
Eccentric anomaly
21.22637°
Mean motion
3.55521 °/min
Orbital period
101.26 mins
BSTAR
0.00044388
Loading maneuver chart data...
Computing Atmospheric mass density...

Documentation

Showing up to 5 results
|